[[{"header":{"parameterUnit":"m.s-1","parameterCategory":2,"la1":30.2991,"la2":30.254,"lo1":-89.0895,"lo2":-89.0444,"dy":0.0017,"dx":0.0017,"nx":28,"ny":28,"refTime":"2025-07-12T09:00:00:Z","depth":"0","parameterNumber":2,"parameterNumberName":"U-component_of_CURRENTS"},"data":[0,0,0,0,0,0,0,0,0,0,0,0,0,0,0,0,0,0,0,0,0,0,0,0,0,0,0,0,0,0,0,0,0,0,0,0,0,0,0,0,0,0,0,0,0,0,0,0,0,0,0,0,0,0,0,0,0,0,0.2526,0.2528,0,0.2551,0.255,0.255,0.2454,0.2452,0.245,0.2449,0.2426,0.2427,0.2429,0,0,0,0,0,0,0,0,0,0,0,0,0,0.2363,0.2366,0.2526,0.2528,0.2529,0.2551,0.255,0.255,0.2455,0.2452,0.245,0.2448,0.2426,0.2427,0.2429,0,0,0,0,0,0,0,0,0,0,0,0,0,0.2406,0.2367,0.2526,0.2491,0.2489,0.2551,0.255,0.255,0.2455,0.2452,0.2449,0.2447,0.2425,0.2427,0.2429,0.2498,0,0,0.2434,0.2435,0,0,0,0,0,0,0,0,0.2404,0.2411,0.2495,0.2494,0.2492,0.2505,0.2485,0.2533,0.2456,0.2458,0.2449,0.2445,0.2457,0.2456,0.2454,0.2497,0.2496,0.2434,0.2436,0.2436,0.2437,0,0,0,0,0,0,0,0.2401,0.2409,0.2526,0.2497,0.2495,0.2463,0.2465,0.2493,0.2465,0.2457,0.2453,0.2472,0.2454,0.2452,0.2452,0.2496,0.2434,0.2436,0.2437,0.2438,0.255,0.2552,0,0,0,0,0,0,0.2424,0.2407,0.2525,0.2528,0.2451,0.247,0.2471,0.2496,0.2465,0.2461,0.2475,0.2468,0.245,0.245,0.2451,0.2487,0.2436,0.2438,0.2439,0.2549,0.2551,0.2553,0,0,0,0,0,0,0.242,0.2434,0.2525,0.2475,0.2485,0.2477,0.2504,0.2498,0.2485,0.2481,0.2473,0.2468,0.2448,0.2449,0.2468,0.2487,0.2439,0.244,0.2546,0.2549,0.2552,0.2587,0,0,0,0,0,0,0.2415,0.2433,0.2452,0.2477,0.249,0.2556,0.2508,0.2501,0.2507,0.2498,0.2474,0.2469,0.2446,0.2466,0.247,0.2488,0.2442,0.2544,0.2548,0.2551,0.2583,0.259,0.2597,0,0,0,0,0,0.2409,0.2455,0.2453,0.2467,0.2519,0.2558,0.256,0.2536,0.251,0.2511,0.2495,0.2469,0.2491,0.247,0.2474,0.2493,0.2542,0.2547,0.2551,0.258,0.2589,0.2596,0,0,0,0,0,0,0.239,0.2452,0.2449,0.2508,0.2529,0.2545,0.2558,0.2547,0.2537,0.2525,0.2499,0.2495,0.2518,0.2514,0.2491,0.2539,0.2512,0.2517,0.2533,0.2541,0.2548,0.252,0.2443,0,0,0,0,0,0.2403,0.245,0.249,0.2535,0.2549,0.2554,0.2567,0.2557,0.2562,0.2552,0.2538,0.2534,0.2547,0.2547,0.2558,0.2593,0.2589,0.2609,0.2616,0.2621,0.2604,0.2646,0.2654,0.2567,0.2567,0.2567,0,0,0.2416,0.2451,0.2481,0.2534,0.2545,0.257,0.255,0.258,0.2585,0.2559,0.2557,0.2563,0.2565,0.2589,0.26,0.2582,0.2645,0.2627,0.2631,0.261,0.2651,0.266,0.2667,0.257,0.2569,0.2569,0,0,0.2461,0.2488,0.2538,0.2554,0.259,0.2592,0.2604,0.2622,0.2608,0.2632,0.2611,0.2625,0.2643,0.2639,0.2643,0.2703,0.2684,0.2714,0.2719,0.2761,0.2767,0.2773,0.2774,0.2779,0.2712,0.2712,0.2712,0,0.2465,0.2526,0.2555,0.2589,0.2597,0.2602,0.2626,0.2632,0.2649,0.264,0.2632,0.2654,0.2662,0.2681,0.2696,0.2714,0.2723,0.2683,0.2767,0.2773,0.2778,0.2777,0.2783,0.2714,0.2714,0.2714,0.2714,0,0.254,0.2572,0.2598,0.2635,0.2647,0.2673,0.2684,0.2686,0.2675,0.2673,0.2688,0.2705,0.2704,0.2728,0.2728,0.2772,0.276,0.2774,0.2739,0.2789,0.2785,0.2791,0.2717,0.2717,0.2716,0.2715,0,0,0.2565,0.2638,0.2636,0.2638,0.2664,0.2675,0.2689,0.2692,0.2677,0.2702,0.2688,0.2733,0.2728,0.2733,0.2747,0.2785,0.284,0.2795,0.2796,0.2781,0.2907,0.2748,0.2738,0.2875,0.2877,0.2878,0.2887,0,0.2594,0.2657,0.2681,0.2697,0.2715,0.2704,0.2706,0.2706,0.2697,0.2688,0.271,0.2714,0.2736,0.2738,0.2783,0.2819,0.2857,0.2834,0.2873,0.2873,0.2714,0.274,0.2542,0.2521,0.2892,0.2893,0.2894,0,0.2639,0.2665,0.2704,0.27,0.2703,0.2707,0.267,0.2678,0.2672,0.2667,0.2676,0.2685,0.2723,0.275,0.2827,0.2813,0.2861,0.2897,0.2899,0.2733,0.2722,0.2535,0.2516,0.2419,0.2901,0.2901,0.29,0,0.262,0.2661,0.2681,0.2685,0.27,0.2687,0.2677,0.2664,0.2648,0.265,0.2634,0.2679,0.2687,0.2767,0.2813,0.2837,0.2889,0.2933,0.2834,0.2822,0.2648,0.2617,0.2519,0.3006,0.3006,0.3006,0.3006,0,0.2633,0.2635,0.267,0.2675,0.2658,0.2667,0.2635,0.2632,0.2616,0.2593,0.262,0.2608,0.2699,0.2724,0.28,0.2791,0.2878,0.2816,0.2813,0.2652,0.2624,0.2524,0.2515,0.3006,0.3006,0.3006,0.3006,0,0.2617,0.2651,0.2658,0.2665,0.2659,0.2639,0.2607,0.2578,0.2574,0.2545,0.2545,0.2559,0.2581,0.2636,0.2738,0.2734,0.2671,0.2763,0.2533,0.25,0.2288,0.2289,0.2156,0.2125,0.2649,0.2645,0.2642,0,0.2619,0.2632,0.2639,0.2624,0.2624,0.2596,0.2569,0.256,0.2531,0.2509,0.2492,0.2489,0.2481,0.2504,0.2486,0.2517,0.2529,0.2346,0.2354,0.2216,0.222,0.2213,0.22,0.2152,0.2145,0.2139,0.2135,0,0.26,0.2608,0.2616,0.2593,0.2565,0.2529,0.2495,0.2476,0.2459,0.2433,0.2401,0.2393,0.234,0.2232,0.2202,0.2216,0.2169,0.2225,0.2164,0.1864,0.1771,0.1757,0.2195,0.2083,0.2088,0.2092,0.2095,0.2097,0.2569,0.2567,0.2577,0.2545,0.2512,0.2464,0.241,0.2387,0.2348,0.2272,0.231,0.2216,0.2034,0.1945,0.1916,0.1658,0.184,0.1607,0.1636,0.1654,0.1554,0.1835,0.1667,0.167,0.1672,0.1674,0.1676,0,0.2525,0.2538,0.2514,0.2478,0.2416,0.2412,0.235,0.2271,0.2211,0.2149,0.2101,0.1844,0.1639,0.1479,0.1171,0.1073,0.1111,0.1051,0.1019,0.106,0.1356,0.1259,0.0893,0.0893,0.0893,0.0893,0.0893,0.0894,0.2504,0.2492,0.2486,0.2392,0.2349,0.222,0.2169,0.2072,0.1993,0.1777,0.16,0.1526,0.1259,0.0894,0.0614,0.0606,0.0634,0.0554,0.0701,0.09,0.0956,0.1009,0.0914,0.0481,0.0481,0.0332,0.033,0.0329]},{"header":{"parameterUnit":"m.s-1","parameterCategory":2,"la1":30.2991,"la2":30.254,"lo1":-89.0895,"lo2":-89.0444,"dy":0.0017,"dx":0.0017,"nx":28,"ny":28,"refTime":"2025-07-12T09:00:00:Z","depth":"0","parameterNumber":3,"parameterNumberName":"V-component_of_CURRENTS"},"data":[0,0,0,0,0,0,0,0,0,0,0,0,0,0,0,0,0,0,0,0,0,0,0,0,0,0,0,0,0,0,0,0,0,0,0,0,0,0,0,0,0,0,0,0,0,0,0,0,0,0,0,0,0,0,0,0,0,0,-0.0592,-0.0593,0,-0.0612,-0.0612,-0.0612,-0.0604,-0.0604,-0.0604,-0.0603,-0.0489,-0.0487,-0.0484,0,0,0,0,0,0,0,0,0,0,0,0,0,-0.0443,-0.0446,-0.0592,-0.0593,-0.0593,-0.0612,-0.0612,-0.0612,-0.0604,-0.0604,-0.0603,-0.0603,-0.049,-0.0487,-0.0484,0,0,0,0,0,0,0,0,0,0,0,0,0,-0.0487,-0.0447,-0.0592,-0.0594,-0.0594,-0.0612,-0.0612,-0.0612,-0.0604,-0.0604,-0.0603,-0.0603,-0.0491,-0.0487,-0.0483,-0.0464,0,0,-0.047,-0.0468,0,0,0,0,0,0,0,0,-0.0485,-0.0493,-0.0593,-0.0594,-0.0594,-0.0608,-0.0518,-0.0557,-0.0604,-0.0597,-0.0603,-0.0603,-0.0519,-0.0512,-0.0515,-0.0458,-0.0453,-0.047,-0.0467,-0.0465,-0.0464,0,0,0,0,0,0,0,-0.0482,-0.0491,-0.0597,-0.0594,-0.0594,-0.0558,-0.0564,-0.0525,-0.0555,-0.0598,-0.0598,-0.0605,-0.0518,-0.0519,-0.0511,-0.0452,-0.047,-0.0466,-0.0464,-0.0462,-0.0306,-0.0305,0,0,0,0,0,0,-0.0492,-0.0489,-0.0597,-0.0598,-0.0541,-0.0561,-0.0568,-0.0601,-0.0558,-0.0553,-0.0605,-0.0604,-0.0526,-0.0516,-0.0507,-0.0429,-0.0465,-0.0461,-0.0459,-0.0308,-0.0306,-0.0304,0,0,0,0,0,0,-0.0489,-0.0502,-0.0596,-0.0544,-0.0554,-0.0565,-0.0602,-0.0602,-0.0607,-0.0566,-0.0557,-0.0611,-0.0526,-0.0513,-0.0468,-0.0426,-0.046,-0.0456,-0.031,-0.0307,-0.0305,-0.0305,0,0,0,0,0,0,-0.0485,-0.0502,-0.0527,-0.0546,-0.0557,-0.0606,-0.0602,-0.0603,-0.0613,-0.0612,-0.0567,-0.0557,-0.0524,-0.0475,-0.0464,-0.0421,-0.0452,-0.0312,-0.0308,-0.0306,-0.0307,-0.0303,-0.03,0,0,0,0,0,-0.048,-0.0519,-0.0529,-0.0541,-0.0594,-0.0606,-0.0608,-0.0611,-0.0614,-0.0615,-0.0581,-0.0558,-0.0447,-0.0471,-0.0458,-0.0413,-0.0313,-0.0309,-0.0306,-0.0309,-0.0304,-0.03,0,0,0,0,0,0,-0.0472,-0.0522,-0.0533,-0.0588,-0.0595,-0.0606,-0.0615,-0.0616,-0.0596,-0.0591,-0.0551,-0.0537,-0.0479,-0.0449,-0.0477,-0.0357,-0.037,-0.0364,-0.0377,-0.0372,-0.0368,-0.0354,-0.0449,0,0,0,0,0,-0.0483,-0.0524,-0.0551,-0.0591,-0.0599,-0.0607,-0.0614,-0.0614,-0.0602,-0.0595,-0.056,-0.051,-0.0454,-0.042,-0.0375,-0.0318,-0.0284,-0.0275,-0.0271,-0.0268,-0.0247,-0.0159,-0.0146,-0.0292,-0.0292,-0.0292,0,0,-0.049,-0.0524,-0.0547,-0.0591,-0.06,-0.0598,-0.061,-0.0622,-0.06,-0.0581,-0.0538,-0.0504,-0.044,-0.0373,-0.0342,-0.0342,-0.0216,-0.0264,-0.0262,-0.0241,-0.0154,-0.014,-0.0127,-0.029,-0.029,-0.0291,0,0,-0.0509,-0.0556,-0.0583,-0.0588,-0.0606,-0.0601,-0.0606,-0.061,-0.0593,-0.0557,-0.0525,-0.0466,-0.04,-0.0333,-0.0292,-0.0239,-0.0207,-0.0225,-0.0181,-0.0097,-0.0084,-0.0073,-0.0047,-0.0032,-0.0212,-0.0212,-0.0212,0,-0.0513,-0.0555,-0.0587,-0.0599,-0.0595,-0.0601,-0.0596,-0.0579,-0.056,-0.0525,-0.0538,-0.0409,-0.0369,-0.0255,-0.0236,-0.0226,-0.0198,-0.0209,-0.0093,-0.008,-0.0068,-0.0043,-0.0027,-0.0212,-0.0212,-0.0212,-0.0212,0,-0.0539,-0.0561,-0.0575,-0.0589,-0.0584,-0.0586,-0.0564,-0.054,-0.0521,-0.0489,-0.0397,-0.0345,-0.026,-0.0235,-0.0219,-0.0101,-0.0119,-0.011,-0.0109,-0.0053,-0.0031,-0.0015,-0.0211,-0.0211,-0.0211,-0.0211,0,0,-0.0573,-0.0589,-0.0591,-0.0577,-0.0576,-0.0568,-0.0525,-0.0474,-0.0422,-0.0384,-0.0301,-0.0212,-0.0187,-0.0138,-0.0102,-0.0027,0.0061,-0.0033,-0.0028,-0.0015,0.0209,0.0181,0.0196,0.0089,0.0092,0.0095,0.0175,0,-0.0576,-0.0583,-0.0588,-0.056,-0.0553,-0.0528,-0.0479,-0.0426,-0.0376,-0.0296,-0.0218,-0.0136,-0.0147,-0.0102,-0.0027,0.0053,0.0111,0.0036,0.0162,0.0165,0.0129,0.0218,0.021,0.0281,0.0192,0.0194,0.0196,0,-0.0593,-0.059,-0.0574,-0.0526,-0.0519,-0.0494,-0.0405,-0.0362,-0.0254,-0.0212,-0.0121,-0.0071,0.0054,0.0025,0.0188,0.0139,0.0174,0.0218,0.0223,0.0218,0.0171,0.0221,0.0314,0.0309,0.0222,0.022,0.0218,0,-0.0585,-0.0572,-0.0551,-0.0542,-0.0495,-0.0461,-0.0422,-0.0331,-0.0268,-0.0153,-0.0092,0.0035,0.0117,0.0201,0.0274,0.0244,0.0436,0.0405,0.0406,0.0401,0.0433,0.0426,0.0539,0.0515,0.0515,0.0515,0.0515,0,-0.0582,-0.0559,-0.0544,-0.0531,-0.0472,-0.0449,-0.0364,-0.0309,-0.0208,-0.0108,-0.0048,0.0056,0.017,0.028,0.032,0.0422,0.0473,0.0441,0.0447,0.0427,0.0418,0.0445,0.0439,0.0518,0.0517,0.0517,0.0516,0,-0.0564,-0.0566,-0.0532,-0.049,-0.0471,-0.0426,-0.034,-0.0267,-0.0195,-0.0062,-0.0022,0.0112,0.025,0.0335,0.0486,0.0488,0.0594,0.0586,0.0522,0.052,0.0495,0.0488,0.0631,0.0683,0.061,0.061,0.0611,0,-0.0544,-0.0536,-0.0502,-0.047,-0.0448,-0.0385,-0.0329,-0.0261,-0.0182,-0.0022,0.0055,0.0203,0.0326,0.0503,0.0556,0.0631,0.0631,0.0628,0.0579,0.0525,0.0524,0.0513,0.0547,0.0603,0.0604,0.0604,0.0604,0,-0.0491,-0.0495,-0.0469,-0.0416,-0.0367,-0.03,-0.0221,-0.0163,-0.0061,0.0041,0.0197,0.0298,0.0443,0.0549,0.0615,0.0639,0.0641,0.0629,0.0631,0.059,0.0537,0.0578,0.0468,0.0604,0.0604,0.0604,0.0604,0.0604,-0.0439,-0.0412,-0.0388,-0.0328,-0.0278,-0.0193,-0.0122,-0.0042,0.0079,0.0242,0.0297,0.045,0.0526,0.0633,0.0646,0.0634,0.0663,0.0621,0.0631,0.0634,0.0662,0.052,0.0625,0.0625,0.0625,0.0625,0.0625,0,-0.0351,-0.033,-0.0284,-0.0208,-0.0131,-0.0125,-0.0023,0.0048,0.0189,0.0306,0.0428,0.056,0.0629,0.0651,0.0637,0.0635,0.0651,0.0639,0.0638,0.0688,0.0616,0.0589,0.0623,0.0623,0.0623,0.0623,0.0623,0.0623,-0.0292,-0.0237,-0.0222,-0.0078,-0.0021,0.008,0.0141,0.0215,0.0295,0.0439,0.0535,0.0602,0.0608,0.0609,0.0603,0.0616,0.0677,0.066,0.0721,0.0644,0.0643,0.0642,0.0617,0.0655,0.0655,0.0797,0.0798,0.0799]}],[{"header":{"parameterUnit":"m.s-1","parameterCategory":2,"la1":30.2991,"la2":30.254,"lo1":-89.0895,"lo2":-89.0444,"dy":0.0017,"dx":0.0017,"nx":28,"ny":28,"refTime":"2025-07-12T09:00:00:Z","depth":"2","parameterNumber":2,"parameterNumberName":"U-component_of_CURRENTS"},"data":[0,0,0,0,0,0,0,0,0,0,0,0,0,0,0,0,0,0,0,0,0,0,0,0,0,0,0,0,0,0,0,0,0,0,0,0,0,0,0,0,0,0,0,0,0,0,0,0,0,0,0,0,0,0,0,0,0,0,0.0283,0.0281,0,0.0225,0.0225,0.0225,0.0313,0.0315,0.0318,0.032,0.0394,0.0394,0.0394,0,0,0,0,0,0,0,0,0,0,0,0,0,0.0493,0.049,0.0283,0.0281,0.0279,0.0225,0.0225,0.0225,0.0313,0.0316,0.0318,0.032,0.0394,0.0394,0.0394,0,0,0,0,0,0,0,0,0,0,0,0,0,0.0426,0.0489,0.0283,0.0309,0.031,0.0225,0.0225,0.0225,0.0313,0.0316,0.0319,0.0322,0.0394,0.0394,0.0394,0.0332,0,0,0.0394,0.0395,0,0,0,0,0,0,0,0,0.0429,0.0419,0.0307,0.0307,0.0307,0.027,0.0326,0.0264,0.0312,0.0323,0.032,0.0323,0.0356,0.0359,0.0355,0.0336,0.0339,0.0394,0.0395,0.0395,0.0395,0,0,0,0,0,0,0,0.0434,0.0422,0.0271,0.0304,0.0305,0.033,0.0325,0.0315,0.0333,0.0322,0.0326,0.0301,0.0359,0.0354,0.0357,0.034,0.0394,0.0395,0.0395,0.0395,0.0522,0.0525,0,0,0,0,0,0,0.0413,0.0425,0.0273,0.0268,0.0365,0.0323,0.0318,0.0288,0.0331,0.0336,0.0298,0.0305,0.0353,0.0357,0.036,0.0458,0.0395,0.0395,0.0395,0.0519,0.0523,0.0526,0,0,0,0,0,0,0.0418,0.04,0.0275,0.0338,0.0323,0.0315,0.0281,0.0285,0.0305,0.0309,0.032,0.0317,0.0355,0.036,0.0408,0.0456,0.0395,0.0395,0.0515,0.052,0.0524,0.0546,0,0,0,0,0,0,0.0425,0.0402,0.0396,0.0336,0.0318,0.0267,0.0277,0.0281,0.0278,0.0287,0.0327,0.0336,0.0358,0.0408,0.0408,0.0455,0.0395,0.051,0.0517,0.0523,0.0541,0.0551,0.056,0,0,0,0,0,0.0432,0.0411,0.0396,0.0378,0.0302,0.0266,0.0263,0.0274,0.0276,0.0302,0.0337,0.0336,0.045,0.0409,0.0409,0.0457,0.0507,0.0515,0.0522,0.0537,0.0549,0.056,0,0,0,0,0,0,0.0505,0.0414,0.0398,0.0352,0.0327,0.0279,0.0288,0.0273,0.0312,0.0333,0.0345,0.0357,0.0423,0.0437,0.0392,0.0523,0.049,0.0498,0.0502,0.0514,0.0523,0.0522,0.0395,0,0,0,0,0,0.0506,0.0472,0.04,0.0371,0.0355,0.0318,0.0306,0.0309,0.0311,0.0332,0.0356,0.0403,0.0444,0.0477,0.0512,0.0553,0.0589,0.0601,0.061,0.0617,0.0624,0.0759,0.078,0.0551,0.0551,0.0551,0,0,0.052,0.0469,0.0449,0.0385,0.0365,0.0354,0.0326,0.0316,0.033,0.033,0.0388,0.0418,0.046,0.0532,0.0566,0.0556,0.0695,0.0627,0.0632,0.0635,0.0769,0.0791,0.081,0.0556,0.0555,0.0554,0,0,0.054,0.0492,0.048,0.0456,0.0416,0.0394,0.039,0.0359,0.0384,0.0412,0.0438,0.0501,0.0545,0.0605,0.0632,0.0709,0.073,0.0733,0.0784,0.0915,0.0934,0.0951,0.0983,0.1004,0.075,0.075,0.075,0,0.0574,0.0526,0.0478,0.0466,0.0447,0.0413,0.041,0.0417,0.0419,0.0442,0.0455,0.0558,0.0587,0.0677,0.0722,0.0728,0.0778,0.0725,0.0924,0.0943,0.096,0.099,0.1012,0.0752,0.0752,0.0752,0.0752,0,0.058,0.0552,0.0546,0.0515,0.0505,0.0493,0.0474,0.0499,0.0509,0.0517,0.0604,0.0655,0.0726,0.0755,0.0757,0.0898,0.088,0.0905,0.0884,0.0984,0.1008,0.1031,0.0755,0.0754,0.0754,0.0753,0,0,0.0626,0.0561,0.0565,0.0549,0.0523,0.0508,0.0544,0.0556,0.0584,0.0636,0.0695,0.0783,0.081,0.0846,0.0874,0.0986,0.113,0.1004,0.101,0.1012,0.1367,0.1171,0.1176,0.1205,0.121,0.1215,0.1316,0,0.0652,0.063,0.0598,0.0595,0.0575,0.0561,0.0591,0.0612,0.0643,0.0704,0.0775,0.0847,0.0845,0.0894,0.1005,0.1106,0.12,0.1096,0.129,0.1293,0.1091,0.12,0.1068,0.1134,0.1338,0.1342,0.1345,0,0.0669,0.0646,0.0644,0.0607,0.0602,0.0618,0.0649,0.0668,0.0741,0.0774,0.0861,0.0904,0.1044,0.1045,0.1269,0.121,0.1291,0.1362,0.1369,0.1197,0.1142,0.1081,0.1167,0.1382,0.1379,0.1377,0.1374,0,0.0708,0.0672,0.067,0.0658,0.0633,0.0657,0.0661,0.071,0.0737,0.0835,0.0885,0.1023,0.1121,0.1271,0.137,0.1363,0.1599,0.1611,0.1496,0.1479,0.1406,0.1373,0.1787,0.1787,0.1786,0.1786,0.1786,0,0.0725,0.0725,0.0692,0.0691,0.0711,0.0685,0.0736,0.0757,0.0814,0.0875,0.0934,0.1036,0.1202,0.1324,0.1414,0.1493,0.1641,0.1512,0.1517,0.1401,0.1368,0.1622,0.1601,0.179,0.1789,0.1788,0.1788,0,0.0774,0.0746,0.0739,0.0724,0.0728,0.0751,0.077,0.0804,0.0846,0.0937,0.0978,0.1102,0.1262,0.1342,0.1573,0.1531,0.1636,0.1621,0.1399,0.1374,0.1413,0.1393,0.1533,0.1527,0.1523,0.1519,0.1515,0,0.0795,0.0794,0.0782,0.0795,0.08,0.0823,0.0845,0.0847,0.0882,0.0991,0.1049,0.1189,0.1281,0.1431,0.1424,0.1468,0.1576,0.132,0.1277,0.1408,0.1401,0.1388,0.1374,0.1191,0.1186,0.1181,0.1177,0,0.0839,0.0844,0.0842,0.0867,0.0888,0.0901,0.093,0.0962,0.0985,0.1043,0.1172,0.1244,0.1298,0.1272,0.121,0.1233,0.1289,0.1218,0.1521,0.1227,0.1082,0.1074,0.1075,0.1136,0.114,0.1143,0.1145,0.1147,0.0889,0.0901,0.0905,0.094,0.0968,0.1009,0.1021,0.1046,0.1097,0.1129,0.12,0.1178,0.1146,0.0986,0.0979,0.0923,0.103,0.0976,0.0995,0.1018,0.0911,0.0762,0.0732,0.0734,0.0735,0.0736,0.0738,0,0.0928,0.0954,0.0976,0.1013,0.1064,0.1069,0.1091,0.106,0.1121,0.1088,0.1105,0.0883,0.0805,0.0792,0.0631,0.0577,0.0632,0.0563,0.0652,0.069,0.0725,0.0609,0.0347,0.0347,0.0346,0.0345,0,0,0.0945,0.0974,0.0982,0.1087,0.1147,0.1152,0.1165,0.1094,0.1016,0.0936,0.0818,0.0752,0.0723,0.0514,0.0485,0.0408,0.0564,0.0382,0.0689,0.0834,0.0869,0.0942,0.0799,0,0,0,0,0]},{"header":{"parameterUnit":"m.s-1","parameterCategory":2,"la1":30.2991,"la2":30.254,"lo1":-89.0895,"lo2":-89.0444,"dy":0.0017,"dx":0.0017,"nx":28,"ny":28,"refTime":"2025-07-12T09:00:00:Z","depth":"2","parameterNumber":3,"parameterNumberName":"V-component_of_CURRENTS"},"data":[0,0,0,0,0,0,0,0,0,0,0,0,0,0,0,0,0,0,0,0,0,0,0,0,0,0,0,0,0,0,0,0,0,0,0,0,0,0,0,0,0,0,0,0,0,0,0,0,0,0,0,0,0,0,0,0,0,0,-0.0325,-0.0324,0,-0.0269,-0.0268,-0.0267,-0.03,-0.0302,-0.0303,-0.0305,-0.0195,-0.019,-0.0185,0,0,0,0,0,0,0,0,0,0,0,0,0,-0.0299,-0.03,-0.0325,-0.0324,-0.0324,-0.0269,-0.0268,-0.0267,-0.0299,-0.0302,-0.0304,-0.0306,-0.0196,-0.0191,-0.0185,0,0,0,0,0,0,0,0,0,0,0,0,0,-0.0281,-0.0301,-0.0325,-0.0336,-0.0336,-0.0269,-0.0268,-0.0266,-0.0299,-0.0302,-0.0305,-0.0307,-0.0198,-0.0191,-0.0184,-0.0086,0,0,-0.0163,-0.016,0,0,0,0,0,0,0,0,-0.0283,-0.0282,-0.0335,-0.0335,-0.0335,-0.0296,-0.0218,-0.0204,-0.0298,-0.031,-0.0305,-0.0308,-0.0223,-0.0214,-0.0195,-0.008,-0.0076,-0.0162,-0.0158,-0.0155,-0.0153,0,0,0,0,0,0,0,-0.0284,-0.0284,-0.03,-0.0334,-0.0334,-0.0288,-0.029,-0.0215,-0.0249,-0.0309,-0.0312,-0.0309,-0.0223,-0.0201,-0.0192,-0.0074,-0.0162,-0.0156,-0.0152,-0.0149,0.0022,0.0023,0,0,0,0,0,0,-0.0302,-0.0286,-0.0302,-0.0299,-0.0318,-0.0287,-0.0289,-0.0304,-0.0251,-0.0247,-0.0307,-0.0311,-0.0212,-0.02,-0.0188,-0.0144,-0.0155,-0.0148,-0.0144,0.0022,0.0023,0.0023,0,0,0,0,0,0,-0.0302,-0.0304,-0.0304,-0.0292,-0.0289,-0.0286,-0.0302,-0.0301,-0.0312,-0.025,-0.0245,-0.0323,-0.0214,-0.0198,-0.0151,-0.0138,-0.0145,-0.0139,0.0022,0.0022,0.0023,-0.0007,0,0,0,0,0,0,-0.0302,-0.0305,-0.0326,-0.0294,-0.0291,-0.0283,-0.0299,-0.0298,-0.0306,-0.0311,-0.026,-0.0252,-0.0215,-0.0162,-0.0145,-0.0128,-0.0133,0.0021,0.0022,0.0023,-0.0007,-0.0008,-0.0009,0,0,0,0,0,-0.0301,-0.0318,-0.0328,-0.033,-0.0319,-0.0283,-0.0277,-0.028,-0.0304,-0.0302,-0.0278,-0.0255,-0.0146,-0.0156,-0.0135,-0.0117,0.0021,0.0022,0.0023,-0.0006,-0.0008,-0.0009,0,0,0,0,0,0,-0.0317,-0.0321,-0.0332,-0.0352,-0.0329,-0.0291,-0.0292,-0.0291,-0.0268,-0.0285,-0.0236,-0.0224,-0.0182,-0.0142,-0.0154,-0.0068,-0.0063,-0.0058,-0.0092,-0.0092,-0.0093,-0.0081,-0.0128,0,0,0,0,0,-0.0329,-0.0346,-0.0331,-0.0343,-0.0341,-0.032,-0.0311,-0.0311,-0.0284,-0.028,-0.0247,-0.0207,-0.0151,-0.0123,-0.0073,-0.0009,0.0032,0.0011,0.001,0.0009,0.0032,0.0098,0.0105,0.0026,0.0026,0.0026,0,0,-0.0331,-0.0341,-0.0348,-0.0347,-0.0336,-0.0311,-0.0322,-0.0316,-0.0291,-0.0264,-0.0235,-0.0207,-0.0138,-0.0084,-0.006,-0.0053,0.0048,0.001,0.0009,0.0033,0.0099,0.0107,0.0114,0.0026,0.0026,0.0026,0,0,-0.0326,-0.0363,-0.0365,-0.035,-0.0344,-0.0324,-0.0331,-0.0308,-0.0305,-0.0264,-0.0244,-0.0207,-0.0133,-0.0075,-0.0034,-0.0001,0.0035,-0.0004,0.0015,0.0078,0.0085,0.0093,0.0131,0.0142,0.0002,0.0002,0.0002,0,-0.0333,-0.0336,-0.0354,-0.0343,-0.0328,-0.0334,-0.031,-0.029,-0.0256,-0.0232,-0.0268,-0.0154,-0.0116,-0.001,-0.0019,0.0002,0.0025,0.0012,0.0077,0.0086,0.0094,0.0132,0.0144,0.0001,0.0001,0.0001,0.0001,0,-0.0311,-0.0317,-0.0316,-0.0309,-0.0292,-0.0277,-0.0254,-0.0245,-0.0254,-0.0223,-0.0164,-0.0118,-0.0048,-0.0039,-0.0018,0.0063,0.0056,0.0061,0.008,0.01,0.0138,0.0152,-0.0001,-0.0001,-0.0,0.0,0,0,-0.0319,-0.0303,-0.0306,-0.0289,-0.0277,-0.0254,-0.0224,-0.0174,-0.0143,-0.0131,-0.0068,-0.0008,-0.0008,0.0038,0.0064,0.0114,0.0167,0.0099,0.0103,0.0136,0.0283,0.0234,0.0244,0.0172,0.0174,0.0176,0.0279,0,-0.0296,-0.0267,-0.0263,-0.0221,-0.0199,-0.0192,-0.0152,-0.0115,-0.0094,-0.004,0.0004,0.006,0.0031,0.0051,0.0098,0.0168,0.0205,0.0138,0.0262,0.0266,0.0219,0.0259,0.0202,0.0285,0.0292,0.0295,0.0296,0,-0.0273,-0.0257,-0.022,-0.0171,-0.0162,-0.0144,-0.0089,-0.0051,0.002,0.0035,0.0086,0.0114,0.0203,0.0152,0.028,0.0231,0.0248,0.0284,0.0289,0.0272,0.0243,0.0272,0.031,0.0319,0.0317,0.0316,0.0314,0,-0.0261,-0.0221,-0.0193,-0.0179,-0.0131,-0.0119,-0.0097,-0.0039,0.0006,0.0076,0.0113,0.0204,0.0256,0.0308,0.035,0.0318,0.0479,0.0452,0.0427,0.0423,0.0418,0.0409,0.0528,0.0528,0.0527,0.0527,0.0527,0,-0.0232,-0.021,-0.0195,-0.0179,-0.0144,-0.0118,-0.0073,-0.0039,0.0033,0.0106,0.014,0.0218,0.0292,0.038,0.0398,0.0462,0.0517,0.0451,0.0459,0.04,0.0389,0.0457,0.0447,0.0531,0.053,0.0529,0.0529,0,-0.0224,-0.0211,-0.0179,-0.0147,-0.0142,-0.0126,-0.0081,-0.0031,0.002,0.0119,0.014,0.0258,0.0364,0.0432,0.0544,0.0528,0.059,0.0584,0.0494,0.0488,0.0477,0.0465,0.0588,0.0587,0.0587,0.0586,0.0586,0,-0.0215,-0.0201,-0.0177,-0.0167,-0.0165,-0.0142,-0.0115,-0.0059,0.0003,0.0146,0.0211,0.0331,0.0441,0.0581,0.0566,0.0607,0.061,0.0551,0.0479,0.0494,0.049,0.0478,0.0467,0.0458,0.0457,0.0456,0.0455,0,-0.0196,-0.0202,-0.0177,-0.0164,-0.0151,-0.0104,-0.0061,-0.0006,0.0088,0.0193,0.0358,0.0458,0.0536,0.0573,0.0575,0.0571,0.0541,0.0526,0.0619,0.0431,0.0375,0.0369,0.0362,0.0445,0.0446,0.0446,0.0447,0.0447,-0.0196,-0.018,-0.0159,-0.0141,-0.0117,-0.0045,0.002,0.0096,0.0227,0.0395,0.046,0.0584,0.0574,0.0577,0.0546,0.0461,0.0483,0.0446,0.0449,0.0453,0.0399,0.0344,0.0397,0.0398,0.0398,0.0399,0.0399,0,-0.017,-0.0152,-0.0129,-0.0073,-0.0007,-0.0011,0.0086,0.0167,0.0338,0.0435,0.0577,0.0574,0.0594,0.055,0.0397,0.0348,0.0336,0.0332,0.0323,0.0332,0.0341,0.0281,0.0247,0.0247,0.0247,0.0247,0,0,-0.0149,-0.0109,-0.0085,0.003,0.0078,0.0171,0.0245,0.0336,0.0402,0.0524,0.057,0.0667,0.0603,0.0485,0.0407,0.0309,0.0332,0.029,0.041,0.0414,0.0423,0.0398,0.0314,0,0,0,0,0]}],[{"header":{"parameterUnit":"m.s-1","parameterCategory":2,"la1":30.2991,"la2":30.254,"lo1":-89.0895,"lo2":-89.0444,"dy":0.0017,"dx":0.0017,"nx":28,"ny":28,"refTime":"2025-07-12T09:00:00:Z","depth":"4","parameterNumber":2,"parameterNumberName":"U-component_of_CURRENTS"},"data":[0,0,0,0,0,0,0,0,0,0,0,0,0,0,0,0,0,0,0,0,0,0,0,0,0,0,0,0,0,0,0,0,0,0,0,0,0,0,0,0,0,0,0,0,0,0,0,0,0,0,0,0,0,0,0,0,0,0,-0.065,-0.065,0,-0.0648,-0.0648,-0.0648,-0.0664,-0.0664,-0.0665,-0.0665,-0.0741,-0.0743,-0.0744,0,0,0,0,0,0,0,0,0,0,0,0,0,-0.0598,-0.0599,-0.065,-0.065,-0.065,-0.0648,-0.0648,-0.0648,-0.0664,-0.0664,-0.0665,-0.0666,-0.0741,-0.0742,-0.0744,0,0,0,0,0,0,0,0,0,0,0,0,0,-0.061,-0.0599,-0.065,-0.0659,-0.066,-0.0648,-0.0648,-0.0648,-0.0664,-0.0664,-0.0665,-0.0666,-0.074,-0.0742,-0.0744,-0.0741,0,0,-0.0751,-0.0752,0,0,0,0,0,0,0,0,-0.0609,-0.0611,-0.0657,-0.0658,-0.0659,-0.0658,-0.0657,-0.0683,-0.0663,-0.0661,-0.0665,-0.0666,-0.0721,-0.0725,-0.0719,-0.0745,-0.0748,-0.0751,-0.0753,-0.0754,-0.0754,0,0,0,0,0,0,0,-0.0608,-0.0611,-0.0648,-0.0657,-0.0658,-0.0639,-0.0642,-0.0661,-0.0686,-0.0661,-0.0662,-0.0664,-0.0722,-0.0717,-0.0722,-0.0749,-0.0751,-0.0753,-0.0755,-0.0756,-0.0851,-0.0852,0,0,0,0,0,0,-0.0614,-0.0611,-0.0648,-0.0648,-0.0637,-0.064,-0.0643,-0.0657,-0.0685,-0.0689,-0.0663,-0.0665,-0.0713,-0.0719,-0.0724,-0.0684,-0.0754,-0.0756,-0.0757,-0.085,-0.0852,-0.0853,0,0,0,0,0,0,-0.0613,-0.0618,-0.0648,-0.0629,-0.0632,-0.0641,-0.0655,-0.0656,-0.0659,-0.0686,-0.0692,-0.0666,-0.0714,-0.0721,-0.0745,-0.0689,-0.0757,-0.0759,-0.0849,-0.0851,-0.0852,-0.0628,0,0,0,0,0,0,-0.0612,-0.0618,-0.0635,-0.063,-0.0634,-0.0642,-0.0654,-0.0655,-0.0659,-0.0661,-0.069,-0.0697,-0.0715,-0.0742,-0.0748,-0.0693,-0.076,-0.0847,-0.085,-0.0852,-0.0634,-0.0622,-0.0612,0,0,0,0,0,-0.061,-0.0629,-0.0636,-0.0641,-0.0656,-0.0641,-0.0641,-0.0648,-0.0658,-0.0654,-0.0677,-0.0697,-0.0762,-0.0743,-0.075,-0.0695,-0.0846,-0.0849,-0.0852,-0.0639,-0.0625,-0.0612,0,0,0,0,0,0,-0.062,-0.0633,-0.064,-0.0665,-0.0654,-0.0645,-0.0649,-0.0648,-0.066,-0.0672,-0.0695,-0.0704,-0.0704,-0.0761,-0.074,-0.0746,-0.0814,-0.0818,-0.0651,-0.0638,-0.0627,-0.0619,-0.0762,0,0,0,0,0,-0.063,-0.0651,-0.0644,-0.0666,-0.0658,-0.0653,-0.0651,-0.0652,-0.0659,-0.0664,-0.0688,-0.0723,-0.072,-0.0727,-0.076,-0.0752,-0.0834,-0.0739,-0.0727,-0.0717,-0.0726,-0.0815,-0.081,-0.0862,-0.0862,-0.0862,0,0,-0.0643,-0.0652,-0.0666,-0.0669,-0.0664,-0.0657,-0.0654,-0.0651,-0.0637,-0.0673,-0.0681,-0.0686,-0.0718,-0.0699,-0.0707,-0.0733,-0.0742,-0.072,-0.0708,-0.0725,-0.0817,-0.0812,-0.0806,-0.0864,-0.0863,-0.0863,0,0,-0.0654,-0.068,-0.0685,-0.0681,-0.0674,-0.0668,-0.0666,-0.0659,-0.0644,-0.0626,-0.0652,-0.0641,-0.0651,-0.0656,-0.0652,-0.0621,-0.0684,-0.0627,-0.054,-0.0624,-0.0619,-0.0616,-0.0676,-0.068,-0.0613,-0.0612,-0.0612,0,-0.0664,-0.0679,-0.0682,-0.0679,-0.0677,-0.0673,-0.0662,-0.0643,-0.0648,-0.0622,-0.0618,-0.0618,-0.0628,-0.0595,-0.0547,-0.0586,-0.0639,-0.0557,-0.0601,-0.06,-0.0601,-0.0665,-0.0672,-0.0602,-0.0603,-0.0604,-0.0605,0,-0.0671,-0.0684,-0.0684,-0.0686,-0.068,-0.0676,-0.0649,-0.0629,-0.0599,-0.0575,-0.0532,-0.0533,-0.0527,-0.0509,-0.048,-0.0475,-0.0511,-0.0569,-0.0609,-0.058,-0.0652,-0.0662,-0.0587,-0.0591,-0.0594,-0.0596,0,0,-0.0677,-0.0686,-0.0687,-0.068,-0.0684,-0.067,-0.0636,-0.0586,-0.0557,-0.052,-0.0483,-0.0408,-0.0396,-0.04,-0.0391,-0.0421,-0.0412,-0.0453,-0.0462,-0.0468,-0.057,-0.0401,-0.0399,-0.0454,-0.0456,-0.0457,-0.0602,0,-0.0673,-0.0675,-0.0678,-0.067,-0.0661,-0.0641,-0.0606,-0.0564,-0.0519,-0.0494,-0.0445,-0.0419,-0.036,-0.0327,-0.0336,-0.0411,-0.0439,-0.0367,-0.0641,-0.0649,-0.0465,-0.0405,-0.0463,-0.0611,-0.0614,-0.0616,-0.0618,0,-0.0662,-0.0669,-0.0666,-0.064,-0.0631,-0.0618,-0.0559,-0.0523,-0.0472,-0.043,-0.0383,-0.0379,-0.0352,-0.0347,-0.043,-0.0375,-0.044,-0.0508,-0.0518,-0.0452,-0.0501,-0.0668,-0.064,-0.0638,-0.0637,-0.0635,-0.0634,0,-0.064,-0.0644,-0.0644,-0.0647,-0.0629,-0.0585,-0.0545,-0.0491,-0.0451,-0.0403,-0.0394,-0.0376,-0.0371,-0.045,-0.0479,-0.0468,-0.062,-0.0662,-0.0592,-0.0583,-0.0792,-0.0795,-0.077,-0.077,-0.0769,-0.0769,-0.0768,0,-0.0616,-0.0611,-0.0631,-0.0622,-0.0594,-0.0565,-0.0504,-0.0453,-0.0416,-0.0378,-0.0357,-0.0346,-0.0393,-0.0453,-0.0514,-0.0538,-0.0653,-0.0559,-0.0598,-0.0694,-0.0685,-0.0798,-0.0799,-0.0774,-0.0773,-0.0772,-0.0771,0,-0.0575,-0.0601,-0.0605,-0.0595,-0.0578,-0.0548,-0.0474,-0.0433,-0.0395,-0.0361,-0.0345,-0.0339,-0.0341,-0.0409,-0.0546,-0.0558,-0.0647,-0.0651,-0.0716,-0.0763,-0.0556,-0.0545,-0.0594,-0.0589,-0.0585,-0.0582,-0.0579,0,-0.0553,-0.0553,-0.0584,-0.0589,-0.0576,-0.0524,-0.0476,-0.0413,-0.0383,-0.0342,-0.0342,-0.0318,-0.0296,-0.0369,-0.0432,-0.0532,-0.0537,-0.062,-0.0575,-0.0498,-0.0534,-0.053,-0.0525,-0.0572,-0.0571,-0.057,-0.0569,0,-0.051,-0.0541,-0.0558,-0.0562,-0.0539,-0.0514,-0.0441,-0.0421,-0.0346,-0.0344,-0.028,-0.0257,-0.0248,-0.0272,-0.0316,-0.0411,-0.058,-0.0576,-0.0586,-0.0545,-0.0473,-0.0511,-0.0511,-0.0554,-0.0556,-0.0558,-0.0558,0,-0.0492,-0.0507,-0.0533,-0.0528,-0.0524,-0.049,-0.0457,-0.0387,-0.0343,-0.0285,-0.0261,-0.0232,-0.0213,-0.0211,-0.0282,-0.0291,-0.03,-0.0369,-0.039,-0.0407,-0.0266,-0.0141,-0.0136,0,0,0,0,0,-0.0461,-0.0457,-0.0469,-0.0477,-0.048,-0.0457,-0.0431,-0.0408,-0.0351,-0.0279,-0.0251,-0.0209,-0.0169,-0.0189,-0.0159,-0.0232,-0.0342,-0.0206,-0.0442,-0.0473,-0.049,-0.0334,0,0,0,0,0,0,-0.0443,-0.0456,-0.046,-0.0435,-0.0414,-0.0395,-0.0379,-0.0355,-0.0314,-0.0259,-0.0237,-0.0196,-0.0176,-0.0147,-0.0144,-0.015,-0.0301,-0.0187,-0.0188,-0.0463,-0.0479,-0.0492,-0.0338,0,0,0,0,0]},{"header":{"parameterUnit":"m.s-1","parameterCategory":2,"la1":30.2991,"la2":30.254,"lo1":-89.0895,"lo2":-89.0444,"dy":0.0017,"dx":0.0017,"nx":28,"ny":28,"refTime":"2025-07-12T09:00:00:Z","depth":"4","parameterNumber":3,"parameterNumberName":"V-component_of_CURRENTS"},"data":[0,0,0,0,0,0,0,0,0,0,0,0,0,0,0,0,0,0,0,0,0,0,0,0,0,0,0,0,0,0,0,0,0,0,0,0,0,0,0,0,0,0,0,0,0,0,0,0,0,0,0,0,0,0,0,0,0,0,0.0466,0.0466,0,0.0478,0.0478,0.0478,0.0501,0.0501,0.0502,0.0502,0.0455,0.0453,0.0452,0,0,0,0,0,0,0,0,0,0,0,0,0,0.0357,0.036,0.0465,0.0466,0.0466,0.0478,0.0478,0.0478,0.05,0.0501,0.0502,0.0502,0.0456,0.0454,0.0451,0,0,0,0,0,0,0,0,0,0,0,0,0,0.039,0.0361,0.0465,0.0479,0.0481,0.0478,0.0478,0.0478,0.05,0.0501,0.0502,0.0503,0.0456,0.0454,0.0451,0.0419,0,0,0.0443,0.0442,0,0,0,0,0,0,0,0,0.0388,0.0394,0.0477,0.0478,0.048,0.0489,0.0422,0.0456,0.05,0.0492,0.0502,0.0503,0.0461,0.0458,0.0458,0.0417,0.0415,0.0443,0.0441,0.044,0.0439,0,0,0,0,0,0,0,0.0386,0.0393,0.0469,0.0477,0.0479,0.0449,0.0455,0.0428,0.047,0.0493,0.0495,0.0497,0.0461,0.0461,0.0457,0.0414,0.0443,0.0441,0.0439,0.0438,0.0468,0.0471,0,0,0,0,0,0,0.0391,0.0391,0.0469,0.047,0.0436,0.0451,0.0458,0.0485,0.0472,0.0471,0.0496,0.0498,0.0465,0.046,0.0455,0.048,0.044,0.0438,0.0436,0.0466,0.0469,0.0471,0,0,0,0,0,0,0.0389,0.0399,0.0469,0.0429,0.0437,0.0453,0.0482,0.0485,0.0496,0.0475,0.0474,0.0507,0.0465,0.0459,0.0441,0.0475,0.0437,0.0434,0.0463,0.0467,0.047,0.0487,0,0,0,0,0,0,0.0387,0.0399,0.0416,0.0431,0.0439,0.046,0.0481,0.0484,0.0496,0.0498,0.0483,0.0479,0.0465,0.0445,0.0438,0.0471,0.0432,0.046,0.0465,0.0469,0.0483,0.0491,0.0497,0,0,0,0,0,0.0383,0.0403,0.0418,0.0426,0.0465,0.046,0.046,0.0472,0.0496,0.0488,0.0491,0.048,0.0471,0.0443,0.0435,0.0468,0.0458,0.0463,0.0469,0.048,0.0489,0.0497,0,0,0,0,0,0,0.0364,0.0408,0.0424,0.0458,0.0456,0.0464,0.0464,0.0477,0.0475,0.0488,0.0475,0.047,0.048,0.0472,0.0442,0.05,0.0477,0.0481,0.0489,0.0497,0.0504,0.0488,0.043,0,0,0,0,0,0.0369,0.04,0.0419,0.0442,0.0445,0.0458,0.046,0.0471,0.0473,0.0476,0.0484,0.0496,0.0495,0.0491,0.0493,0.0492,0.046,0.0525,0.0532,0.0537,0.0525,0.0461,0.0459,0.0489,0.0489,0.0489,0,0,0.0364,0.0395,0.041,0.0439,0.0445,0.046,0.0461,0.0469,0.0497,0.0467,0.0515,0.051,0.0502,0.0518,0.0526,0.0512,0.0527,0.0544,0.0548,0.0533,0.0466,0.0462,0.0459,0.0493,0.0492,0.0491,0,0,0.0361,0.0401,0.0417,0.0425,0.0441,0.0459,0.0465,0.0491,0.0515,0.0556,0.0544,0.0533,0.0585,0.0546,0.0542,0.058,0.0564,0.0631,0.064,0.0579,0.0573,0.0569,0.0572,0.0567,0.0632,0.0632,0.0633,0,0.035,0.0391,0.0412,0.0428,0.0451,0.0465,0.0487,0.0505,0.0532,0.0535,0.059,0.0605,0.0593,0.0545,0.0588,0.0587,0.0584,0.0599,0.058,0.0574,0.0569,0.0573,0.0567,0.0634,0.0634,0.0634,0.0633,0,0.0363,0.0389,0.0396,0.0444,0.0467,0.0481,0.0521,0.0544,0.0612,0.0626,0.0638,0.0625,0.0626,0.0641,0.0638,0.0597,0.0622,0.0589,0.0542,0.0565,0.0571,0.0564,0.0636,0.0636,0.0635,0.0635,0,0,0.0358,0.0397,0.0403,0.0429,0.0484,0.0508,0.0551,0.0573,0.0577,0.064,0.064,0.066,0.0649,0.0642,0.0615,0.057,0.0552,0.0589,0.0585,0.0564,0.048,0.0437,0.0426,0.0521,0.0519,0.0517,0.0515,0,0.0359,0.0394,0.0428,0.0478,0.0505,0.0542,0.0575,0.0599,0.0636,0.0634,0.0612,0.0619,0.0651,0.0654,0.0613,0.055,0.0531,0.056,0.0485,0.0484,0.0416,0.0413,0.0511,0.051,0.0508,0.0507,0.0506,0,0.0373,0.0399,0.0457,0.0501,0.0517,0.0586,0.0637,0.0656,0.0626,0.0646,0.0627,0.0607,0.0557,0.059,0.051,0.054,0.0534,0.0494,0.0492,0.0429,0.0425,0.0474,0.0494,0.0495,0.0495,0.0496,0.0497,0,0.0375,0.0423,0.0486,0.0509,0.0564,0.0634,0.0684,0.0687,0.0669,0.0656,0.0635,0.0578,0.0565,0.0521,0.0484,0.0511,0.0385,0.0397,0.0351,0.0351,0.0381,0.0386,0.0341,0.0341,0.0341,0.0341,0.0341,0,0.0376,0.0412,0.0521,0.0548,0.064,0.069,0.0748,0.0759,0.0722,0.0663,0.0659,0.0574,0.0551,0.0471,0.0456,0.0379,0.0371,0.0345,0.0325,0.0403,0.0409,0.0379,0.0384,0.0341,0.0341,0.0341,0.0341,0,0.0358,0.0415,0.0471,0.0576,0.065,0.0729,0.0816,0.0797,0.0788,0.0709,0.0705,0.0586,0.0503,0.0453,0.0358,0.0341,0.0262,0.0241,0.0356,0.0344,0.0298,0.0304,0.021,0.0208,0.0206,0.0205,0.0204,0,0.0347,0.0383,0.0507,0.0586,0.0674,0.08,0.0855,0.0865,0.0816,0.068,0.0608,0.0514,0.0446,0.0298,0.0243,0.0207,0.02,0.0195,0.0232,0.0283,0.0274,0.0283,0.0291,0.0201,0.02,0.02,0.02,0,0.0308,0.0362,0.0401,0.0566,0.0698,0.0761,0.0846,0.0782,0.0723,0.0716,0.0539,0.0448,0.0335,0.0254,0.0232,0.0186,0.0206,0.0178,0.0183,0.0218,0.0271,0.0265,0.0276,0.0194,0.0194,0.0195,0.0195,0,0.0279,0.0298,0.038,0.0531,0.0669,0.0706,0.073,0.0704,0.0656,0.0527,0.0456,0.0353,0.032,0.0235,0.017,0.016,0.0177,0.0195,0.02,0.0206,0.0193,0.0259,0.0147,0,0,0,0,0,0.0258,0.0275,0.0361,0.048,0.0597,0.069,0.0707,0.0686,0.0626,0.0523,0.0498,0.0399,0.029,0.0202,0.0192,0.0124,0.0153,0.0106,0.0173,0.016,0.0167,0.0146,0,0,0,0,0,0,0.0244,0.029,0.0316,0.0429,0.0513,0.0606,0.061,0.0553,0.049,0.0449,0.0398,0.0418,0.0318,0.0339,0.0207,0.019,0.023,0.0079,0.0078,0.0156,0.0163,0.0168,0.0149,0,0,0,0,0]}]]